Location: Blankensee
(53.5126°N, 14.3055°E)
Time: 17:05:48
(UTC+00:00)

Meteor 1-15 Rocket - Pass Details

Date: 08 August 2020
Orbit: 839 x 907 km, 81.2° (Epoch: 19 September)

Event Time Altitude Azimuth Distance (km) Brightness Sun altitude
Exits shadow 01:17:48 23° 210° (SSW) 1,753 5.2 -15.1°
Maximum altitude 01:21:24 66° 287° (WNW) 933 4.3 -14.8°
Drops below altitude 10° 01:26:59 10° 10° (N) 2,480 7.7 -14.4°
Sets 01:29:26 0° 13° (NNE) 3,414 8.7 -14.2°
